Showing default

ESSA 6 (TOS-D), 3035

Orbit data source: Space-Track

ESSA 6 (TOS-D), 3035 is a payload satellite owned by ESSA (US) in SSO that was launched on Fri, 10 Nov 1967 UTC via a THOR DELTA E1 launch vehicle from the Air Force Western Test Range (AFWTR). Payload-class satellites include a variety of spacecraft equipped with specific instruments for various scientific and technological missions. These include communications satellites like Starlink; space stations such as the ISS; scientific satellites like the Hubble; Earth observation satellites from companies like Planet Labs, Umbra, and HawkEye 360; GPS; miniature CubeSats for education and research; and military/defense satellites.

Loading next visibility...
Identifier
3035, 1967-114A
Orbit
SSO
Country
Flag of USUS
Related business
Manufacturer
RCA/East Windsor
Mission
Non-operational spacecraft
Bus & Motor
TIROS I, Unknown motor
Mass
135 kg wet, 135 kg dry
Launch date (UTC)
1967-11-10 (58 years ago)
Launch vehicle
THOR DELTA E1
Launch site
Air Force Western Test Range (AFWTR)
Object type
Payload
Rocket body
Debris
Shape & HBR
Unknown
Radar Cross Section
Medium (>0.1 m² and <1 m²)

Expand to show TLE details & history
Last TLE update: 11 hours ago

TLE from 11 hours ago
0 ESSA 6 (TOS-D)
1  3035U 67114A   26129.50760294 -.00000029  00000-0  10895-3 0  9991
2  3035 102.0114 233.9159 0048840 196.9902 175.2987 12.54249130677767
Epoch: 2026-05-09T12:10Z
TLE epoch observation values (Epoch: 2026-05-09T12:10:56.894Z)
Latitude
12.02344°
Longitude
-178.72976°
Altitude
1,486.687 km
Speed
7.104 km/s
True Right ascension
15h 25m 19s
True Declination
11° 57' 36"
Sunlit
Object was in full shadow at epoch
Visualization orbit readout
Latitude
Unknown
Longitude
Unknown
Altitude
Unknown
Speed
Unknown
Apparent Right ascension
Unknown
Apparent Declination
Unknown
Sunlit
N/A
Visualization observer readout
Local Sidereal Time
06:59:37
Azimuth
Unknown
Elevation
Unknown
Doppler factor
Unknown
Orbital elements
Apogee altitude
1,482.534 km
Perigee altitude
1,406.124 km
Semi-major axis
7,822.466 km
Eccentricity
0.00488
Inclination
102.0114°
RAAN
233.9159°
Arg. of periapsis
196.9902°
True anomaly
175.34429°
Mean anomaly
175.2987°
Eccentric anomaly
175.32152°
Mean motion
3.13709 °/min
Orbital period
114.76 mins
BSTAR
0.00010895
Loading maneuver chart data...
Computing Atmospheric mass density...
Loading historical data...
Loading historical data...
Loading historical data...
Loading historical data...
Loading historical data...
Loading historical data...
Loading historical data...
Other satellites on launch #114 in the year 1967 (1967-11-10 UTC)

Documentation

Showing up to 5 results
|